Weather History for Deer Park, WA

Change the Weather History Date:

Wednesday, August 27, 2014

  Actual Average Record
Temperature  
Mean Temperature 69 °F 63 °F  
Max Temperature 90 °F 81 °F 93 °F (1999)
Min Temperature 47 °F 45 °F 35 °F (2007)
Degree Days  
Heating Degree Days 0 4  
Month to date heating degree days 8 59  
Since 1 June heating degree days 232 327  
Since 1 July heating degree days 26 127  
Cooling Degree Days 4 2  
Month to date cooling degree days 130 70  
Year to date cooling degree days 342 167  
Since 1 June cooling degree days 342 164  
Growing Degree Days 18 (Base 50)    
Moisture  
Dew Point 45 °F    
Average Humidity 53    
Maximum Humidity 86    
Minimum Humidity 19    
Precipitation  
Precipitation 0.00 in 0.04 in 0.30 in (2008)
Month to date precipitation 0.89 0.69  
Year to date precipitation 14.57 13.29  
Sea Level Pressure  
Sea Level Pressure 29.97 in    
Wind  
Wind Speed 5 mph (SSW)    
Max Wind Speed 17 mph    
Max Gust Speed 26 mph    
Visibility 10 miles    
Events      
T = Trace of Precipitation, MM = Missing Value Source: NWS Daily Summary

Daily Weather History Graph

Daily Weather History Graph

Search for Another Location

Airport:

Trip Planner

Search our weather history database for the weather conditions in past years. The results will help you decide how hot, cold, wet, or windy it might be!

Date:

Astronomy

Aug. 27, 2014 Rise Set
Actual Time 6:01 AM PDT 7:40 PM PDT
Civil Twilight 5:28 AM PDT 8:12 PM PDT
Nautical Twilight 4:48 AM PDT 8:52 PM PDT
Astronomical Twilight 4:04 AM PDT 9:35 PM PDT
Moon 8:13 AM PDT (8/27) 8:20 PM PDT (8/27)
Length of Visible Light 14h 44m
Length of Day
13h 39m
Waxing Crescent, 4% of the Moon is Illuminated
Aug 27
Waxing Crescent
Sep 2
First Quarter
Sep 8
Full
Sep 15
Last Quarter
Sep 23
New

Hourly Weather History & Observations

Time (PDT) Temp. Dew Point Humidity Pressure Visibility Wind Dir Wind Speed Gust Speed Precip Events Conditions
12:53 AM 54.0 °F 45.0 °F 72% 30.00 in 10.0 mi Calm Calm - N/A   Clear
1:53 AM 54.0 °F 45.0 °F 72% 30.00 in 10.0 mi Calm Calm - N/A   Clear
2:53 AM 52.0 °F 44.1 °F 74% 30.01 in 10.0 mi Calm Calm - N/A   Clear
3:53 AM 51.1 °F 45.0 °F 80% 30.01 in 10.0 mi Calm Calm - N/A   Clear
4:53 AM 48.9 °F 45.0 °F 86% 30.03 in 10.0 mi Calm Calm - N/A   Clear
5:53 AM 48.9 °F 44.1 °F 83% 30.03 in 10.0 mi Calm Calm - N/A   Clear
6:53 AM 51.1 °F 46.0 °F 83% 30.05 in 10.0 mi Calm Calm - N/A   Clear
7:53 AM 63.0 °F 50.0 °F 63% 30.05 in 10.0 mi Calm Calm - N/A   Clear
8:53 AM 69.1 °F 50.0 °F 51% 30.06 in 10.0 mi Calm Calm - N/A   Clear
9:53 AM 73.0 °F 48.0 °F 41% 30.05 in 10.0 mi South 5.8 mph - N/A   Clear
10:53 AM 75.9 °F 46.9 °F 36% 30.05 in 10.0 mi Variable 4.6 mph - N/A   Clear
12:53 PM 84.0 °F 44.1 °F 25% 30.00 in 10.0 mi South 4.6 mph - N/A   Clear
1:53 PM 88.0 °F 44.1 °F 22% 29.98 in 10.0 mi South 9.2 mph - N/A   Clear
2:53 PM 88.0 °F 43.0 °F 21% 29.96 in 10.0 mi SW 5.8 mph - N/A   Clear
3:53 PM 89.1 °F 43.0 °F 20% 29.94 in 10.0 mi South 11.5 mph - N/A   Clear
4:53 PM 89.1 °F 44.1 °F 21% 29.93 in 10.0 mi SW 10.4 mph - N/A   Clear
5:53 PM 89.1 °F 44.1 °F 21% 29.91 in 10.0 mi WSW 13.8 mph 20.7 mph N/A   Mostly Cloudy
6:53 PM 86.0 °F 44.1 °F 23% 29.90 in 10.0 mi SW 10.4 mph - N/A   Clear
7:53 PM 82.0 °F 45.0 °F 27% 29.90 in 10.0 mi SSW 9.2 mph - N/A   Clear
8:53 PM 77.0 °F 45.0 °F 32% 29.90 in 10.0 mi SSW 9.2 mph - N/A   Clear
9:15 PM 75.0 °F 45.0 °F 34% 29.94 in 10.0 mi SW 5.8 mph - N/A   Partly Cloudy
9:53 PM 73.0 °F 46.0 °F 38% 29.90 in 10.0 mi SW 5.8 mph - N/A   Clear
10:53 PM 64.0 °F 46.0 °F 52% 29.90 in 10.0 mi Calm Calm - N/A   Clear
11:53 PM 60.1 °F 46.9 °F 62% 29.90 in 10.0 mi Calm Calm - N/A   Clear